Location: *
(46.4000°N, 12.6667°E)
Time: 00:48:56
(UTC+00:00)

CZ-4C R/B - Pass Details

Date: 26 June 2021
Orbit: 606 x 1396 km, 63.4° (Epoch: 30 July)

Event Time Altitude Azimuth Distance (km) Brightness Sun altitude
Exits shadow 23:42:29 19° 127° (SE) 1,660 3.5 -19.9°
Maximum altitude 23:43:34 21° 109° (ESE) 1,634 3.6 -19.9°
Drops below altitude 10° 23:47:34 10° 62° (ENE) 2,427 5.1 -19.8°
Sets 23:50:48 0° 48° (NE) 3,518 6.2 -19.7°
